| time (UTC) | temp F | wind direction | speed MPH | gust MPH | rain 1hr in | rain 24hr in | rain mn in | humidity % | barometer mb |
| 20260509141230 | 59 | 156 | 0.0 | 6.0 | 0.00 | 0.00 | 0.00 | 72 | 1006.3 |
| 20260509140221 | 59 | 30 | 0.0 | 3.0 | 0.00 | 0.00 | 0.00 | 71 | 1006.4 |
| 20260509135209 | 58 | 136 | 0.0 | 3.0 | 0.00 | 0.00 | 0.00 | 71 | 1006.5 |
| 20260509133036 | 56 | 50 | 0.0 | 0.0 | 0.00 | 0.00 | 0.00 | 72 | 1006.9 |
| 20260509132012 | 55 | 146 | 0.0 | 0.0 | 0.00 | 0.00 | 0.00 | 73 | 1007.1 |
| 20260509131036 | 54 | 167 | 0.0 | 2.0 | 0.00 | 0.00 | 0.00 | 74 | 1007.1 |
| 20260509130056 | 54 | 156 | 0.0 | 0.0 | 0.00 | 0.00 | 0.00 | 74 | 1007.2 |
| 20260509125056 | 53 | 200 | 0.0 | 1.0 | 0.00 | 0.01 | 0.00 | 75 | 1007.2 |
| 20260509124108 | 53 | 179 | 0.0 | 1.0 | 0.00 | 0.01 | 0.00 | 75 | 1007.2 |
| 20260509121918 | 51 | 146 | 0.0 | 0.0 | 0.00 | 0.02 | 0.00 | 77 | 1007.2 |
| 20260509120921 | 51 | 197 | 0.0 | 0.0 | 0.00 | 0.02 | 0.00 | 77 | 1007.4 |
| 20260509115924 | 50 | 162 | 0.0 | 0.0 | 0.00 | 0.02 | 0.00 | 78 | 1007.4 |
| 20260509114903 | 49 | 168 | 0.0 | 0.0 | 0.00 | 0.02 | 0.00 | 78 | 1007.3 |
| 20260509113906 | 49 | 198 | 0.0 | 0.0 | 0.00 | 0.02 | 0.00 | 78 | 1007.4 |
| 20260509112842 | 48 | 144 | 0.0 | 0.0 | 0.00 | 0.02 | 0.00 | 77 | 1007.3 |
| 20260509111854 | 48 | 190 | 0.0 | 0.0 | 0.00 | 0.02 | 0.00 | 76 | 1007.4 |
| 20260509110838 | 48 | 187 | 0.0 | 0.0 | 0.00 | 0.02 | 0.00 | 76 | 1007.5 |
| 20260509105837 | 48 | 209 | 0.0 | 1.0 | 0.00 | 0.02 | 0.00 | 77 | 1007.5 |
| 20260509104844 | 48 | 167 | 0.0 | 0.0 | 0.00 | 0.02 | 0.00 | 76 | 1007.4 |
| 20260509103818 | 47 | 155 | 0.0 | 0.0 | 0.00 | 0.02 | 0.00 | 76 | 1007.4 |
| 20260509102753 | 47 | 182 | 0.0 | 0.0 | 0.00 | 0.02 | 0.00 | 75 | 1007.4 |
| 20260509101718 | 46 | 176 | 0.0 | 0.0 | 0.00 | 0.02 | 0.00 | 74 | 1007.4 |
| 20260509100731 | 45 | 143 | 0.0 | 0.0 | 0.00 | 0.02 | 0.00 | 73 | 1007.4 |
| 20260509095738 | 45 | 182 | 0.0 | 0.0 | 0.00 | 0.02 | 0.00 | 71 | 1007.4 |
| 20260509094735 | 45 | 182 | 0.0 | 0.0 | 0.00 | 0.02 | 0.00 | 69 | 1007.4 |
| 20260509093700 | 45 | 182 | 0.0 | 0.0 | 0.00 | 0.02 | 0.00 | 67 | 1007.4 |
| 20260509092709 | 45 | 182 | 0.0 | 0.0 | 0.00 | 0.02 | 0.00 | 66 | 1007.5 |
| 20260509091639 | 45 | 169 | 0.0 | 0.0 | 0.00 | 0.02 | 0.00 | 65 | 1007.4 |
| 20260509090658 | 45 | 169 | 0.0 | 0.0 | 0.00 | 0.02 | 0.00 | 64 | 1007.6 |
| 20260509084632 | 45 | 169 | 0.0 | 0.0 | 0.00 | 0.02 | 0.00 | 64 | 1007.7 |
| 20260509083609 | 45 | 173 | 0.0 | 0.0 | 0.00 | 0.02 | 0.00 | 63 | 1007.7 |
| 20260509082551 | 45 | 136 | 0.0 | 0.0 | 0.00 | 0.02 | 0.00 | 63 | 1007.9 |
| 20260509081546 | 45 | 195 | 0.0 | 0.0 | 0.00 | 0.02 | 0.00 | 62 | 1008.1 |
| 20260509080610 | 45 | 198 | 0.0 | 0.0 | 0.00 | 0.02 | 0.00 | 61 | 1008.1 |
| 20260509075601 | 45 | 198 | 0.0 | 0.0 | 0.00 | 0.02 | 0.00 | 61 | 1008.2 |
| 20260509074606 | 44 | 185 | 0.0 | 0.0 | 0.00 | 0.02 | 0.00 | 60 | 1008.1 |
| 20260509073617 | 44 | 185 | 0.0 | 0.0 | 0.00 | 0.03 | 0.00 | 60 | 1008.1 |
| 20260509072627 | 44 | 185 | 0.0 | 0.0 | 0.00 | 0.03 | 0.00 | 62 | 1008.2 |
| 20260509071611 | 43 | 191 | 0.0 | 0.0 | 0.00 | 0.03 | 0.00 | 63 | 1008.3 |
| 20260509070605 | 43 | 191 | 0.0 | 0.0 | 0.00 | 0.03 | 0.00 | 64 | 1008.4 |
| 20260509065601 | 44 | 191 | 0.0 | 0.0 | 0.00 | 0.03 | 0.00 | 64 | 1008.6 |
| 20260509064538 | 44 | 191 | 0.0 | 0.0 | 0.00 | 0.03 | 0.00 | 64 | 1008.7 |
| 20260509063534 | 44 | 184 | 0.0 | 0.0 | 0.00 | 0.03 | 0.00 | 64 | 1008.9 |
| 20260509062546 | 44 | 184 | 0.0 | 0.0 | 0.00 | 0.03 | 0.00 | 63 | 1008.9 |
| 20260509061550 | 44 | 184 | 0.0 | 0.0 | 0.00 | 0.03 | 0.00 | 63 | 1009.0 |
| 20260509054259 | 45 | 169 | 0.0 | 0.0 | 0.00 | 0.03 | 0.00 | 63 | 1009.3 |
| 20260509053309 | 46 | 160 | 0.0 | 0.0 | 0.00 | 0.03 | 0.00 | 62 | 1009.4 |
| 20260509052253 | 46 | 153 | 0.0 | 0.0 | 0.00 | 0.03 | 0.00 | 62 | 1009.6 |
| 20260509051258 | 46 | 160 | 0.0 | 0.0 | 0.00 | 0.03 | 0.00 | 61 | 1009.7 |
| 20260509050320 | 46 | 194 | 0.0 | 0.0 | 0.00 | 0.03 | 0.00 | 61 | 1009.8 |
| 20260509045248 | 46 | 163 | 0.0 | 0.0 | 0.00 | 0.03 | 0.00 | 61 | 1009.8 |
| 20260509044225 | 46 | 153 | 0.0 | 0.0 | 0.00 | 0.03 | 0.00 | 62 | 1009.9 |
| 20260509043232 | 46 | 171 | 0.0 | 0.0 | 0.00 | 0.03 | 0.00 | 62 | 1010.0 |
| 20260509042234 | 46 | 200 | 0.0 | 1.0 | 0.00 | 0.03 | 0.00 | 61 | 1010.1 |
| 20260509041252 | 46 | 190 | 0.0 | 0.0 | 0.00 | 0.03 | 0.00 | 61 | 1010.1 |
| 20260509040229 | 46 | 210 | 0.0 | 2.0 | 0.00 | 0.03 | 0.00 | 61 | 1010.1 |
| 20260509032910 | 47 | 169 | 0.0 | 1.0 | 0.00 | 0.04 | 0.03 | 60 | 1010.1 |
| 20260509031916 | 47 | 184 | 0.0 | 0.0 | 0.00 | 0.04 | 0.03 | 60 | 1010.2 |
| 20260509030902 | 47 | 160 | 0.0 | 0.0 | 0.00 | 0.04 | 0.03 | 59 | 1010.2 |
| 20260509025902 | 46 | 165 | 0.0 | 0.0 | 0.00 | 0.04 | 0.03 | 58 | 1010.3 |
| 20260509024916 | 47 | 181 | 0.0 | 0.0 | 0.00 | 0.04 | 0.03 | 59 | 1010.3 |
| 20260509023913 | 47 | 162 | 0.0 | 0.0 | 0.00 | 0.04 | 0.03 | 59 | 1010.3 |
| 20260509022909 | 47 | 176 | 0.0 | 0.0 | 0.00 | 0.04 | 0.03 | 61 | 1010.3 |
| 20260509021851 | 46 | 173 | 0.0 | 2.0 | 0.00 | 0.04 | 0.03 | 62 | 1010.3 |
| 20260509020903 | 47 | 308 | 0.0 | 0.0 | 0.00 | 0.04 | 0.03 | 61 | 1010.4 |
| 20260509014750 | 47 | 354 | 0.0 | 0.0 | 0.00 | 0.04 | 0.03 | 62 | 1010.3 |
| 20260509013724 | 47 | 354 | 0.0 | 0.0 | 0.00 | 0.04 | 0.03 | 61 | 1010.3 |
| 20260509012701 | 47 | 354 | 0.0 | 0.0 | 0.00 | 0.04 | 0.03 | 60 | 1010.2 |
| 20260509010658 | 48 | 354 | 0.0 | 0.0 | 0.00 | 0.04 | 0.03 | 60 | 1010.0 |
| 20260509005638 | 48 | 354 | 0.0 | 0.0 | 0.00 | 0.04 | 0.03 | 59 | 1009.8 |
| 20260509004628 | 49 | 354 | 0.0 | 0.0 | 0.00 | 0.04 | 0.03 | 59 | 1009.6 |
| 20260509003649 | 49 | 354 | 0.0 | 0.0 | 0.00 | 0.04 | 0.03 | 58 | 1009.5 |
| 20260509002654 | 50 | 354 | 0.0 | 0.0 | 0.00 | 0.04 | 0.03 | 58 | 1009.5 |
| 20260509001632 | 51 | 354 | 0.0 | 0.0 | 0.00 | 0.04 | 0.03 | 55 | 1009.4 |
| 20260509000634 | 52 | 354 | 0.0 | 0.0 | 0.00 | 0.04 | 0.03 | 52 | 1009.4 |
| 20260508235636 | 53 | 354 | 0.0 | 0.0 | 0.00 | 0.04 | 0.03 | 49 | 1009.4 |
| 20260508233436 | 54 | 354 | 0.0 | 0.0 | 0.00 | 0.04 | 0.03 | 45 | 1009.2 |
| 20260508232453 | 55 | 354 | 0.0 | 0.0 | 0.00 | 0.04 | 0.03 | 41 | 1009.1 |
| 20260508231440 | 56 | 354 | 0.0 | 0.0 | 0.00 | 0.04 | 0.03 | 40 | 1009.2 |
| 20260508230432 | 58 | 21 | 0.0 | 0.0 | 0.00 | 0.04 | 0.03 | 38 | 1009.1 |
| 20260508225432 | 59 | 164 | 0.0 | 2.0 | 0.00 | 0.04 | 0.03 | 35 | 1009.2 |
| 20260508224419 | 60 | 204 | 0.0 | 1.0 | 0.00 | 0.04 | 0.03 | 33 | 1009.1 |
| 20260508223426 | 61 | 23 | 0.0 | 2.0 | 0.00 | 0.04 | 0.03 | 33 | 1009.2 |
| 20260508222358 | 60 | 357 | 0.0 | 2.0 | 0.00 | 0.04 | 0.03 | 37 | 1009.0 |
| 20260508221349 | 61 | 6 | 0.0 | 2.0 | 0.00 | 0.04 | 0.03 | 39 | 1009.1 |
| 20260508220353 | 61 | 1 | 0.0 | 2.0 | 0.00 | 0.04 | 0.03 | 36 | 1009.1 |
| 20260508215358 | 61 | 346 | 0.0 | 2.0 | 0.00 | 0.04 | 0.03 | 40 | 1009.2 |
| 20260508214400 | 61 | 3 | 0.0 | 1.0 | 0.00 | 0.04 | 0.03 | 36 | 1009.3 |
| 20260508213406 | 60 | 16 | 0.0 | 3.0 | 0.00 | 0.04 | 0.03 | 33 | 1009.3 |
| 20260508212358 | 61 | 309 | 0.0 | 4.0 | 0.00 | 0.04 | 0.03 | 37 | 1009.4 |
| 20260508211342 | 61 | 224 | 1.0 | 4.0 | 0.00 | 0.04 | 0.03 | 35 | 1009.4 |
| 20260508210331 | 61 | 6 | 0.0 | 2.0 | 0.00 | 0.04 | 0.03 | 36 | 1009.4 |
| 20260508205345 | 61 | 31 | 1.0 | 4.0 | 0.00 | 0.04 | 0.03 | 37 | 1009.5 |
| 20260508204358 | 60 | 357 | 0.0 | 4.0 | 0.00 | 0.04 | 0.03 | 36 | 1009.6 |
| 20260508203357 | 60 | 115 | 0.0 | 3.0 | 0.00 | 0.04 | 0.03 | 37 | 1009.7 |
| 20260508202359 | 58 | 4 | 0.0 | 3.0 | 0.00 | 0.04 | 0.03 | 36 | 1009.8 |
| 20260508201404 | 57 | 335 | 0.0 | 6.0 | 0.00 | 0.04 | 0.03 | 37 | 1010.1 |
| 20260508200342 | 58 | 7 | 1.0 | 6.0 | 0.00 | 0.04 | 0.03 | 38 | 1010.0 |
| 20260508195359 | 58 | 161 | 0.0 | 3.0 | 0.00 | 0.04 | 0.03 | 40 | 1010.2 |
| 20260508194422 | 58 | 8 | 0.0 | 3.0 | 0.00 | 0.04 | 0.03 | 40 | 1010.2 |
| 20260508193426 | 58 | 147 | 1.0 | 8.0 | 0.00 | 0.04 | 0.03 | 42 | 1010.3 |
| 20260508190129 | 56 | 129 | 0.0 | 4.0 | 0.00 | 0.04 | 0.03 | 47 | 1010.6 |
| 20260508185152 | 56 | 358 | 1.0 | 6.0 | 0.00 | 0.04 | 0.03 | 48 | 1010.6 |
| 20260508184207 | 57 | 15 | 1.0 | 6.0 | 0.00 | 0.04 | 0.03 | 49 | 1010.7 |
| 20260508183206 | 56 | 207 | 1.0 | 5.0 | 0.00 | 0.04 | 0.03 | 48 | 1010.7 |
| 20260508182223 | 56 | 342 | 0.0 | 6.0 | 0.00 | 0.04 | 0.03 | 49 | 1010.7 |
| 20260508181225 | 56 | 359 | 1.0 | 6.0 | 0.00 | 0.04 | 0.03 | 51 | 1010.9 |
| 20260508180228 | 56 | 344 | 1.0 | 4.0 | 0.00 | 0.04 | 0.03 | 48 | 1010.9 |
| 20260508175235 | 55 | 171 | 1.0 | 5.0 | 0.00 | 0.04 | 0.03 | 54 | 1011.0 |
| 20260508174241 | 55 | 198 | 1.0 | 5.0 | 0.00 | 0.04 | 0.03 | 56 | 1011.1 |
| 20260508172126 | 53 | 359 | 3.0 | 6.0 | 0.00 | 0.04 | 0.03 | 55 | 1011.3 |
| 20260508171135 | 53 | 151 | 1.0 | 6.0 | 0.00 | 0.04 | 0.03 | 57 | 1011.4 |
| 20260508170101 | 52 | 129 | 1.0 | 5.0 | 0.00 | 0.04 | 0.03 | 63 | 1011.4 |
| 20260508165103 | 51 | 23 | 1.0 | 5.0 | 0.00 | 0.04 | 0.03 | 61 | 1011.6 |
| 20260508162944 | 49 | 319 | 1.0 | 4.0 | 0.00 | 0.04 | 0.03 | 65 | 1011.9 |
| 20260508162006 | 49 | 172 | 1.0 | 6.0 | 0.00 | 0.04 | 0.03 | 67 | 1011.9 |
| 20260508160936 | 48 | 196 | 1.0 | 6.0 | 0.00 | 0.04 | 0.03 | 71 | 1012.0 |
| 20260508155927 | 48 | 15 | 0.0 | 4.0 | 0.00 | 0.04 | 0.03 | 71 | 1012.0 |
| 20260508154947 | 48 | 356 | 0.0 | 2.0 | 0.00 | 0.04 | 0.03 | 72 | 1012.0 |
| 20260508151717 | 48 | 196 | 0.0 | 4.0 | 0.00 | 0.04 | 0.03 | 74 | 1011.9 |
| 20260508150659 | 48 | 193 | 1.0 | 5.0 | 0.00 | 0.04 | 0.03 | 75 | 1011.9 |
| 20260508145629 | 47 | 150 | 0.0 | 5.0 | 0.00 | 0.04 | 0.03 | 78 | 1011.7 |
| 20260508144600 | 45 | 188 | 0.0 | 3.0 | 0.00 | 0.04 | 0.03 | 80 | 1011.9 |
| 20260508143608 | 45 | 164 | 0.0 | 3.0 | 0.00 | 0.04 | 0.03 | 80 | 1012.0 |